Torna al catalogo

SATURN 5 R/B

AttivoHEO
NORAD 3627·ROCKET BODY·🇺🇸 United States

Lanciato Dec 21, 1968 da Cape Canaveral Space Force Station

Loading…

Prossimi Passaggi (prossime 24 ore)

TLE

ObsoletoSource: Space-Track

Epoca: Dec 21, 1968, 15:46 UTC

1 03627U 68118  B 68356.65757754  .00000000 +00000-0 +00000-0 0  9996
2 03627 030.7142 141.9251 9763415 029.5976 000.0400 00.06001781000000

Traccia SATURN 5 R/B in tempo reale con AllMySat

Download on the App Store